Regional Weather Roundup
Issued by NWS

Home | Current Version | Previous Version | Graphics & Text | Print | Product List | Glossary On
Versions: 1 2 3 4 5 6 7 8 9 10 11 12 13 14 15 16 17 18 19 20 21 22 23 24 25 26 27 28 29 30 31 32 33 34 35 36 37 38 39 40 41 42 43 44 45 46 47 48 49
000
ASUS45 KBOU 040107
RWRCO

WEATHER ROUNDUP FOR COLORADO
NATIONAL WEATHER SERVICE DENVER/BOULDER CO
700 PM MDT TUE MAY 03 2016

NOTE: "FAIR" INDICATES FEW OR NO CLOUDS BELOW 12000 FEET WITH NO
SIGNIFICANT WEATHER AND/OR OBSTRUCTIONS TO VISIBILITY.

COZ001>005-013-030-031-040200-
...NORTHWEST COLORADO...

CITY           SKY/WX    TMP DP  RH WIND       PRES   REMARKS
CRAIG          FAIR      66  29  24 W6        30.22S
HAYDEN         FAIR      63  30  29 W10       30.23F
MEEKER         FAIR      66  25  21 NE7       30.22S
MOUNT WERNER   NOT AVBL
STEAMBOAT SPGS FAIR      62  28  27 SW7       30.23F
WALDEN         FAIR      54  19  26 NW10      30.32S
$$

COZ006>008-011-040200-
...WEST CENTRAL VALLEYS...

CITY           SKY/WX    TMP DP  RH WIND       PRES   REMARKS
GRAND JUNCTION FAIR      71  28  20 NW6       30.11F
MONTROSE       FAIR      69  23  17 N7        30.18S
EAGLE          FAIR      68  18  14 N7        30.21F
RIFLE          FAIR      71  25  17 SW6       30.15S
DELTA          NOT AVBL
NUCLA          NOT AVBL
$$

COZ017>023-064>068-040200-
...SOUTHWEST COLORADO...

CITY           SKY/WX    TMP DP  RH WIND       PRES   REMARKS
DURANGO        FAIR      64  31  28 W9        30.21R
CORTEZ         FAIR      68  28  22 S15       30.17S
PAGOSA SPRINGS FAIR      63  22  21 SW9       30.25S
TELLURIDE      FAIR      55  23  28 CALM      30.33S
WOLF CREEK PAS FAIR      37  14  38 E6        30.49S
$$

COZ009-010-012-014-032>034-037-058>063-040200-
...CENTRAL COLORADO...

CITY           SKY/WX    TMP DP  RH WIND       PRES   REMARKS
ASPEN          FAIR      60  17  18 W8        30.24F
BUENA VISTA    FAIR      60   9  13 SE6       30.27S
COPPER MTN     NOT AVBL
BERTHOUD PASS  FAIR      32  23  69 NW13G20   30.50R WCI  22
COTTONWOOD PAS FAIR      52   3  14 SE6       30.37S
GUNNISON       FAIR      61  18  18 W8        30.26S
KREMMLING      FAIR      61  10  13 NW10      30.26S
LEADVILLE      FAIR      50   9  19 NW10      30.35S
MONARCH PASS   FAIR      36  14  41 NE20G26   30.56F
SALIDA         FAIR      62  20  19 SE9       30.33
SUNLIGHT       FAIR      46  21  36 CALM      30.46S
WILKERSON PASS FAIR      37  18  44 SE6       30.47S
$$

COZ069>075-040200-
...SAN LUIS VALLEY/SANGRE DE CRISTO MOUNTAINS...

CITY           SKY/WX    TMP DP  RH WIND       PRES   REMARKS
ALAMOSA        FAIR      61   7  11 N9        30.26S
LA VETA PASS   FAIR      39  27  60 N5        30.41R
SAGUACHE       FAIR      59  21  23 S9        30.28R
$$

COZ035-036-038>040-040200-
...NORTHERN COLORADO FRONT RANGE...

CITY           SKY/WX    TMP DP  RH WIND       PRES   REMARKS
DENVER INTL AP FAIR      63  31  30 N10       30.20S
DMNS CITY PARK   N/A     64  24  21 NE15      30.20S
AURORA         FAIR      62  30  29 N10       30.22S
FRONT RANGE AP PTCLDY    63  32  31 MISG      30.21S
ERIE MUNI ARPT FAIR      65  28  24 NE6       30.20R
BOULDER MUN AP FAIR      64  30  27 N3        30.20S
CENTENNIAL     FAIR      62  28  27 NE8       30.22S
BROOMFIELD     PTCLDY    63  28  27 N10       30.22S
FORT COLLINS   FAIR      66  34  30 NE9       30.19S
LONGMONT       FAIR      67  30  25 NE6       30.21S
$$

COZ041-046-047-076>085-087-088-040200-
...PIKES PEAK/PALMER DIVIDE AND SOUTHERN FOOTHILLS...

CITY           SKY/WX    TMP DP  RH WIND       PRES   REMARKS
COLO. SPRINGS  FAIR      61  20  20 N16       30.24S
A. F. ACADEMY  FAIR      59  21  23 N14       30.25R
SCHRIEVER AFB  NOT AVBL
ELLICOTT       FAIR     N/A N/A N/A NE14      30.22S
FALCON         FAIR      57  22  25 N10       30.28R
FORT CARSON    FAIR      63  20  19 N13       30.21R
LIMON          FAIR      61  33  35 N14       30.18S
MONUMENT HILL  FAIR      52  30  43 N6        30.29S
TRINIDAD       FAIR      62  25  24 N10       30.22S
$$

COZ042>045-048>051-090-091-040200-
...NORTHEAST COLORADO...

CITY           SKY/WX    TMP DP  RH WIND       PRES   REMARKS
GREELEY ARPT   FAIR      66  36  32 N13       30.17F
AKRON          FAIR      64  32  30 N10       30.14S
BURLINGTON     FAIR      63  31  30 N8        30.12S
WRAY           NOT AVBL
STERLING       FAIR      68  32  26 NE7       30.11S
HOLYOKE        NOT AVBL
FORT MORGAN    FAIR      65  34  31 N9        30.15S
$$

COZ086-089-092>099-040200-
...SOUTHEAST COLORADO...

CITY           SKY/WX    TMP DP  RH WIND       PRES   REMARKS
PUEBLO         FAIR      70  25  18 NE9       30.17R
LA JUNTA       FAIR      69  30  23 N15       30.14S
LAMAR          FAIR      68  29  23 N10       30.09S
SPRINGFIELD      N/A     60  31  33 N14       30.14R
$$



USA.gov is the U.S. government's official web portal to all federal, state and local government web resources and services.